This demonstration page uses our WeatherBlox Daily Observations layout. Learn more.

39.29038, -76.61219

Hourly Observations for January 26, 2019

Temp ( °F °C ) Dew Point ( °F °C ) Humidity (%) Winds ( mph kmh ) Pressure ( in mb ) Visibility ( mi km ) Precip ( " mm )
12:54 am 00:54 undefined 31 -0.6 6 -14.4 35 35 undefined N/A 30.21 1023 N/A 0 0
1:54 am 01:54 undefined 30 -1.1 8 -13.3 39 39 undefined N/A 30.24 1024 N/A 0 0
2:54 am 02:54 undefined 29 -1.7 11 -11.7 47 47 undefined N/A 30.24 1024 N/A 0 0
3:54 am 03:54 undefined 28 -2.2 12 -11.1 51 51 undefined N/A 30.24 1024 N/A 0 0
4:54 am 04:54 undefined 27 -2.8 13 -10.6 55 55 undefined N/A 30.33 1027 N/A 0 0
5:54 am 05:54 undefined 27 -2.8 14 -10 58 58 undefined N/A 30.18 1022 N/A 0 0
6:54 am 06:54 undefined 27 -2.8 16 -8.9 63 63 undefined N/A 30.21 1023 N/A 0 0
7:54 am 07:54 undefined 28 -2.2 16 -8.9 60 60 undefined N/A 30.24 1024 N/A 0 0
8:54 am 08:54 undefined 30 -1.1 15 -9.4 54 54 undefined N/A 30.27 1025 N/A 0 0
9:54 am 09:54 undefined 33 0.6 18 -7.8 54 54 undefined N/A 30.33 1027 N/A 0 0
10:54 am 10:54 undefined 33 0.6 15 -9.4 47 47 undefined N/A 30.27 1025 N/A 0 0
11:54 am 11:54 undefined 35 1.7 13 -10.6 40 40 undefined N/A 30.27 1025 N/A 0 0
12:54 pm 12:54 undefined 36 2.2 12 -11.1 37 37 undefined N/A 30.24 1024 N/A 0 0
1:54 pm 13:54 undefined 37 2.8 12 -11.1 36 36 undefined N/A 30.18 1022 N/A 0 0
2:54 pm 14:54 undefined 37 2.8 12 -11.1 36 36 undefined N/A 30.15 1021 N/A 0 0
3:54 pm 15:54 undefined 37 2.8 14 -10 39 39 undefined N/A 30.15 1021 N/A 0 0
4:54 pm 16:54 undefined 36 2.2 15 -9.4 42 42 undefined N/A 30.15 1021 N/A 0 0
5:54 pm 17:54 undefined 36 2.2 16 -8.9 44 44 undefined N/A 30.18 1022 N/A 0 0
6:54 pm 18:54 undefined 36 2.2 16 -8.9 44 44 undefined N/A 30.18 1022 N/A 0 0
7:54 pm 19:54 undefined 35 1.7 18 -7.8 50 50 undefined N/A 30.18 1022 N/A 0 0
8:54 pm 20:54 undefined 34 1.1 20 -6.7 56 56 undefined N/A 30.18 1022 N/A 0 0
9:54 pm 21:54 undefined 33 0.6 21 -6.1 61 61 undefined N/A 30.18 1022 N/A 0 0
10:54 pm 22:54 undefined 33 0.6 21 -6.1 61 61 undefined N/A 30.18 1022 N/A 0 0
11:54 pm 23:54 undefined 32 0 22 -5.6 66 66 undefined N/A 30.18 1022 N/A 0 0

Powered by AerisWeather